SCP
-0 -0 -0 -1 -0 -0 -0 -0 -0 -0 -0 -0 -0 0 -0 -0 0 0 0 0 0 0 0 -0 -0 -0 -0 -0 -0 -0 -0 0 0
-0 -0 -0 -1 -0 -0 -0 -0 -0 -1 -1 -0 -0 -0 0 -0 -0 -0 -0 -0 -0 -0 0 0 0 -0 0 0 -0 -0 -0 0 -0
0 -0 -0 -1 -0 -0 -0 -0 -0 -0 -0 -0 0 0 0 0 -0 -0 0 0 0 0 0 -0 0 0 0 0 0 -0 0 0 -0
0 0 -1 -1 -1 -0 -0 -0 -0 -0 -0 -0 -0 -0 -0 -0 -0 -0 -0 0 0 0 0 0 0 1 0 0 -0 0 0 0 0
0 0 0 -0 -1 -0 -0 -0 -0 -0 0 -0 -0 0 0 0 0 -0 -0 -0 -0 -0 -0 -0 -0 0 0 -0 -0 -0 0 0 0
0 0 1 0 -0 -0 -0 -0 -0 -0 -0 -0 0 0 0 0 -0 -0 -0 -0 -0 -0 -0 -0 -0 -0 -1 -1 -1 -1 -1 -0 -0
0 0 1 1 0 -0 -0 -0 -0 -0 0 0 0 0 0 -0 -0 -0 -0 -0 -1 -0 -0 -0 -0 -0 -1 -2 -2 -2 -1 -1 -0
0 0 0 1 0 0 -0 -0 0 0 0 -0 -0 -0 -0 -1 -0 -0 -0 -0 -0 -1 -1 -1 -1 -1 -1 -1 -2 -2 -2 -2 -1
0 0 1 0 1 0 0 -0 0 0 0 -0 -0 -0 -1 -1 -1 -1 -1 -0 -0 -1 -1 -1 -1 -1 -1 -2 -2 -3 -3 -3 -1
0 0 0 0 0 1 1 0 1 1 1 1 1 0 -0 -1 -1 -1 -1 -1 -1 -1 -1 -1 -1 -1 -1 -2 -2 -2 -2 -2 -1
0 0 0 0 0 0 0 1 0 0 1 2 1 0 0 0 -0 -1 -1 -2 -2 -1 -1 -1 -1 -1 -1 -1 -1 -1 -1 -0 -1
0 0 1 1 0 0 0 0 0 2 2 2 2 1 1 1 1 -0 -1 -3 -2 -1 -0 0 -0 -0 -0 -1 -1 -0 -0 0 0
0 0 0 1 1 0 0 1 0 1 2 1 1 1 2 3 2 1 -1 -2 -1 0 0 0 1 0 0 -0 -0 0 0 0 2
0 0 0 0 1 2 2 1 1 1 1 2 1 2 2 3 3 2 2 2 2 3 3 2 1 1 1 0 0 1 1 0 2
0 0 0 0 0 0 1 2 1 1 1 1 1 1 1 1 2 4 5 4 4 5 6 5 3 2 2 1 1 1 2 0 0
0 0 0 0 0 0 1 1 2 1 1 1 2 3 2 3 4 5 4 6 6 7 6 6 4 3 3 2 2 3 2 1 0
0 0 0 0 0 0 2 2 3 1 1 0 0 1 2 3 5 7 5 8 6 6 6 6 5 4 3 3 3 3 3 1 0
0 0 0 0 0 0 1 2 4 3 3 2 1 1 1 3 6 5 6 0 0 4 2 3 5 5 5 3 3 3 3 3 1
0 0 0 0 0 0 0 1 2 2 2 2 2 3 3 4 6 6 3 0 0 0 0 0 0 0 4 0 0 0 0 0 0
0 0 0 0 0 0 0 0 2 2 2 1 2 2 3 3 5 7 4 1 0 0 0 0 0 0 0 0 0 0 0 0 0
Wind_Speed_500mb
108 106 107 108 111 111 108 102 98 99 98 93 88 82 82 82 79 70 62 57 58 48 52 50 41 34 41 33 24 32 36 44 37
99 103 106 108 112 113 114 108 105 104 100 95 89 86 83 83 83 82 75 64 62 58 55 50 45 42 43 40 36 31 34 46 46
82 109 108 105 112 110 113 108 108 105 103 97 90 85 85 82 81 85 83 75 66 67 58 57 55 37 49 50 46 42 35 45 51
81 100 105 106 108 111 108 107 105 108 105 99 92 86 82 82 81 81 85 86 74 71 68 60 58 62 42 51 54 50 39 44 51
76 82 108 108 107 112 110 108 105 106 106 105 97 88 83 83 81 80 81 84 81 73 73 73 65 60 61 51 51 53 49 42 52
54 71 103 103 102 107 106 109 108 104 103 104 100 94 88 83 83 82 82 80 79 78 74 73 78 71 66 68 64 57 54 49 44
63 62 93 97 100 105 106 108 107 105 101 98 95 95 93 90 86 84 81 81 82 82 82 80 79 78 81 82 75 74 67 62 54
51 58 86 90 96 100 106 106 104 103 100 96 93 88 88 87 84 81 80 81 82 81 83 86 85 84 84 85 88 86 83 77 71
30 46 44 89 86 101 108 111 107 104 102 97 94 94 87 78 80 81 80 79 78 78 79 81 84 88 88 89 91 92 89 82 80
55 48 46 43 38 78 95 91 104 100 97 95 96 94 90 87 82 78 78 76 77 81 83 81 82 83 83 87 89 91 91 88 85
48 43 39 42 31 25 32 69 94 100 95 94 92 93 96 93 92 88 81 80 81 80 80 85 88 89 88 87 87 86 88 88 89
54 46 39 38 39 32 28 24 39 73 91 100 97 92 92 94 93 92 93 92 90 86 84 84 88 90 93 97 96 92 88 88 92
53 47 40 29 27 23 16 17 9 34 67 73 89 95 93 88 86 91 92 92 91 91 89 88 84 88 92 94 98 97 95 92 90
51 41 32 22 12 21 27 23 11 9 31 70 74 71 74 77 80 87 89 86 89 92 93 90 90 88 87 91 92 90 90 90 91
54 54 36 24 16 15 15 14 17 18 13 19 25 50 67 68 64 65 74 84 86 88 90 90 90 88 86 87 87 86 84 82 85
49 48 43 29 23 27 26 20 23 21 24 30 31 32 44 61 71 67 66 66 79 83 85 87 88 87 86 83 78 76 74 73 69
41 35 43 32 27 28 29 32 28 26 26 30 34 40 43 51 54 61 59 60 66 71 81 85 86 82 80 75 69 68 63 63 61
33 29 28 32 35 33 33 33 27 22 26 38 42 39 42 51 55 60 60 60 65 69 73 78 80 79 74 64 60 60 55 48 46
32 35 29 31 35 37 33 36 37 38 39 41 42 44 37 42 50 57 62 63 64 65 61 66 66 60 52 51 54 51 45 49 49
39 37 34 32 42 55 48 41 39 37 49 44 44 47 42 44 49 55 61 63 63 66 66 63 53 54 54 52 53 48 44 47 45
Wind_Direction_500mb
191 185 183 183 187 190 193 198 202 207 211 214 215 221 222 219 223 222 222 219 215 218 226 232 236 234 234 240 233 229 230 230 237
180 180 182 184 187 191 195 196 202 207 214 216 218 220 222 219 219 224 226 221 217 216 220 230 236 238 236 236 237 232 239 234 231
175 181 182 182 186 189 197 199 203 206 216 219 221 220 221 223 220 222 228 228 221 218 219 221 229 242 243 240 239 239 246 237 236
185 179 179 181 184 190 200 201 202 206 211 218 222 224 224 225 225 223 225 229 228 224 223 220 224 233 242 236 235 239 249 244 238
188 173 178 180 182 189 196 198 201 207 211 216 224 226 227 227 229 230 226 226 230 228 225 224 221 226 234 235 237 240 247 251 238
182 167 175 178 180 186 192 198 202 207 212 218 222 226 228 230 230 232 233 230 229 232 230 228 226 223 232 237 241 243 247 253 251
199 186 168 177 180 186 193 200 202 207 211 217 222 225 229 231 233 233 235 237 235 233 236 235 233 231 233 239 243 246 249 251 251
175 167 172 173 182 185 192 199 204 208 212 213 218 224 228 232 234 235 236 238 240 240 238 240 241 241 240 240 242 245 247 250 253
148 176 174 184 186 186 189 198 206 209 210 214 216 219 226 232 235 235 236 238 239 241 243 241 242 243 244 244 245 247 250 251 253
90 101 108 115 124 190 192 192 202 206 211 215 215 220 224 228 232 235 238 240 241 242 242 244 244 243 244 245 246 247 250 252 253
81 77 76 78 95 118 143 203 209 211 212 215 217 220 226 227 230 234 237 239 242 243 244 244 246 247 248 247 248 248 249 251 254
86 83 75 74 74 85 89 177 188 212 213 216 218 222 227 230 231 234 237 239 242 245 245 246 248 250 250 251 252 251 251 251 250
67 70 69 65 51 52 75 48 118 212 213 218 220 224 228 228 234 238 239 242 245 246 247 250 251 253 254 255 257 257 257 255 252
58 56 62 72 75 43 33 358 353 61 204 217 220 223 226 230 236 240 243 245 245 245 246 248 250 252 255 258 259 260 260 259 255
45 44 44 44 33 359 351 343 340 310 264 202 221 232 233 235 235 237 242 244 244 244 244 246 249 251 254 257 258 260 262 261 259
36 41 29 32 24 1 348 340 342 302 288 277 265 247 238 245 244 242 239 242 242 240 242 244 246 246 251 256 257 257 259 262 263
17 22 22 17 17 10 12 0 342 303 295 282 273 265 253 246 246 243 239 238 241 240 240 241 242 246 248 251 255 260 261 261 261
4 355 358 4 357 347 344 338 328 311 286 279 287 279 267 250 243 241 238 230 230 235 238 241 243 245 247 249 254 255 256 258 261
341 343 339 343 335 328 324 322 319 305 302 289 279 278 270 245 240 236 234 234 229 226 233 237 238 239 244 246 244 248 250 255 250
327 327 337 345 337 315 309 307 308 309 307 303 268 256 259 245 236 232 231 230 230 229 227 233 230 235 236 237 239 248 243 241 246
Wind_Speed_850mb
108 106 107 108 111 111 108 102 98 99 98 93 88 82 82 82 79 70 62 57 58 48 52 50 41 34 41 33 24 32 36 44 37
99 103 106 108 112 113 114 108 105 104 100 95 89 86 83 83 83 82 75 64 62 58 55 50 45 42 43 40 36 31 34 46 46
82 109 108 105 112 110 113 108 108 105 103 97 90 85 85 82 81 85 83 75 66 67 58 57 55 37 49 50 46 42 35 45 51
81 100 105 106 108 111 108 107 105 108 105 99 92 86 82 82 81 81 85 86 74 71 68 60 58 62 42 51 54 50 39 44 51
76 82 108 108 107 112 110 108 105 106 106 105 97 88 83 83 81 80 81 84 81 73 73 73 65 60 61 51 51 53 49 42 52
54 71 103 103 102 107 106 109 108 104 103 104 100 94 88 83 83 82 82 80 79 78 74 73 78 71 66 68 64 57 54 49 44
63 62 93 97 100 105 106 108 107 105 101 98 95 95 93 90 86 84 81 81 82 82 82 80 79 78 81 82 75 74 67 62 54
51 58 86 90 96 100 106 106 104 103 100 96 93 88 88 87 84 81 80 81 82 81 83 86 85 84 84 85 88 86 83 77 71
30 46 44 89 86 101 108 111 107 104 102 97 94 94 87 78 80 81 80 79 78 78 79 81 84 88 88 89 91 92 89 82 80
55 48 46 43 38 78 95 91 104 100 97 95 96 94 90 87 82 78 78 76 77 81 83 81 82 83 83 87 89 91 91 88 85
48 43 39 42 31 25 32 69 94 100 95 94 92 93 96 93 92 88 81 80 81 80 80 85 88 89 88 87 87 86 88 88 89
54 46 39 38 39 32 28 24 39 73 91 100 97 92 92 94 93 92 93 92 90 86 84 84 88 90 93 97 96 92 88 88 92
53 47 40 29 27 23 16 17 9 34 67 73 89 95 93 88 86 91 92 92 91 91 89 88 84 88 92 94 98 97 95 92 90
51 41 32 22 12 21 27 23 11 9 31 70 74 71 74 77 80 87 89 86 89 92 93 90 90 88 87 91 92 90 90 90 91
54 54 36 24 16 15 15 14 17 18 13 19 25 50 67 68 64 65 74 84 86 88 90 90 90 88 86 87 87 86 84 82 85
49 48 43 29 23 27 26 20 23 21 24 30 31 32 44 61 71 67 66 66 79 83 85 87 88 87 86 83 78 76 74 73 69
41 35 43 32 27 28 29 32 28 26 26 30 34 40 43 51 54 61 59 60 66 71 81 85 86 82 80 75 69 68 63 63 61
33 29 28 32 35 33 33 33 27 22 26 38 42 39 42 51 55 60 60 60 65 69 73 78 80 79 74 64 60 60 55 48 46
32 35 29 31 35 37 33 36 37 38 39 41 42 44 37 42 50 57 62 63 64 65 61 66 66 60 52 51 54 51 45 49 49
39 37 34 32 42 55 48 41 39 37 49 44 44 47 42 44 49 55 61 63 63 66 66 63 53 54 54 52 53 48 44 47 45
Wind_Direction_850mb
191 185 183 183 187 190 193 198 202 207 211 214 215 221 222 219 223 222 222 219 215 218 226 232 236 234 234 240 233 229 230 230 237
180 180 182 184 187 191 195 196 202 207 214 216 218 220 222 219 219 224 226 221 217 216 220 230 236 238 236 236 237 232 239 234 231
175 181 182 182 186 189 197 199 203 206 216 219 221 220 221 223 220 222 228 228 221 218 219 221 229 242 243 240 239 239 246 237 236
185 179 179 181 184 190 200 201 202 206 211 218 222 224 224 225 225 223 225 229 228 224 223 220 224 233 242 236 235 239 249 244 238
188 173 178 180 182 189 196 198 201 207 211 216 224 226 227 227 229 230 226 226 230 228 225 224 221 226 234 235 237 240 247 251 238
182 167 175 178 180 186 192 198 202 207 212 218 222 226 228 230 230 232 233 230 229 232 230 228 226 223 232 237 241 243 247 253 251
199 186 168 177 180 186 193 200 202 207 211 217 222 225 229 231 233 233 235 237 235 233 236 235 233 231 233 239 243 246 249 251 251
175 167 172 173 182 185 192 199 204 208 212 213 218 224 228 232 234 235 236 238 240 240 238 240 241 241 240 240 242 245 247 250 253
148 176 174 184 186 186 189 198 206 209 210 214 216 219 226 232 235 235 236 238 239 241 243 241 242 243 244 244 245 247 250 251 253
90 101 108 115 124 190 192 192 202 206 211 215 215 220 224 228 232 235 238 240 241 242 242 244 244 243 244 245 246 247 250 252 253
81 77 76 78 95 118 143 203 209 211 212 215 217 220 226 227 230 234 237 239 242 243 244 244 246 247 248 247 248 248 249 251 254
86 83 75 74 74 85 89 177 188 212 213 216 218 222 227 230 231 234 237 239 242 245 245 246 248 250 250 251 252 251 251 251 250
67 70 69 65 51 52 75 48 118 212 213 218 220 224 228 228 234 238 239 242 245 246 247 250 251 253 254 255 257 257 257 255 252
58 56 62 72 75 43 33 358 353 61 204 217 220 223 226 230 236 240 243 245 245 245 246 248 250 252 255 258 259 260 260 259 255
45 44 44 44 33 359 351 343 340 310 264 202 221 232 233 235 235 237 242 244 244 244 244 246 249 251 254 257 258 260 262 261 259
36 41 29 32 24 1 348 340 342 302 288 277 265 247 238 245 244 242 239 242 242 240 242 244 246 246 251 256 257 257 259 262 263
17 22 22 17 17 10 12 0 342 303 295 282 273 265 253 246 246 243 239 238 241 240 240 241 242 246 248 251 255 260 261 261 261
4 355 358 4 357 347 344 338 328 311 286 279 287 279 267 250 243 241 238 230 230 235 238 241 243 245 247 249 254 255 256 258 261
341 343 339 343 335 328 324 322 319 305 302 289 279 278 270 245 240 236 234 234 229 226 233 237 238 239 244 246 244 248 250 255 250
327 327 337 345 337 315 309 307 308 309 307 303 268 256 259 245 236 232 231 230 230 229 227 233 230 235 236 237 239 248 243 241 246